,,,PA_Meas_PMT16A,,PR_Meas_QMR101_102,,RH_Meas_QMH101,,SR_Meas_QMS101,,TA_Meas_QMH101,,GenWind,,GenWind,
date,time,status,PA,status,PR,status,RH,status,SR,status,TA,status,DirAvg,status,SpdAvg,
2011-12-16, 00:00:04,VALID,1000.89,VALID,0,VALID,83.5134,VALID,0,VALID,26.4297,VALID,335,VALID,1.39375,
2011-12-16, 00:01:04,VALID,1000.9,VALID,0,VALID,83.4371,VALID,0,VALID,26.4492,VALID,344,VALID,1.17227,
2011-12-16, 00:02:04,VALID,1000.89,VALID,0,VALID,83.3608,VALID,0,VALID,26.4492,VALID,343,VALID,1.33867,
2011-12-16, 00:03:04,VALID,1000.88,VALID,0,VALID,83.4065,VALID,0,VALID,26.4687,VALID,342,VALID,1.0457,
2011-12-16, 00:04:04,VALID,1000.91,VALID,0,VALID,83.5439,VALID,0,VALID,26.4492,VALID,334,VALID,0.85,
2011-12-16, 00:05:04,VALID,1000.9,VALID,0,VALID,83.582,VALID,0,VALID,26.4492,VALID,352,VALID,0.861719,
2011-12-16, 00:06:04,VALID,1000.89,VALID,0,VALID,83.6354,VALID,0,VALID,26.4297,VALID,336,VALID,1.01289,
2011-12-16, 00:07:04,VALID,1000.9,VALID,0,VALID,83.6888,VALID,0,VALID,26.4102,VALID,351,VALID,0.789453,
2011-12-16, 00:08:04,VALID,1000.89,VALID,0,VALID,83.582,VALID,0,VALID,26.4297,VALID,346,VALID,1.01523,
2011-12-16, 00:09:04,VALID,1000.89,VALID,0,VALID,83.788,VALID,0,VALID,26.4102,VALID,337,VALID,1.07852,
2011-12-16, 00:10:04,VALID,1000.9,VALID,0,VALID,83.4905,VALID,0,VALID,26.4102,VALID,341,VALID,0.720312,
2011-12-16, 00:11:04,VALID,1000.89,VALID,0,VALID,83.582,VALID,0,VALID,26.4492,VALID,320,VALID,0.930469,
2011-12-16, 00:12:04,VALID,1000.91,VALID,0,VALID,83.3608,VALID,0,VALID,26.4492,VALID,345,VALID,1.15469,
2011-12-16, 00:13:04,VALID,1000.93,VALID,0,VALID,83.1395,VALID,0,VALID,26.4687,VALID,343,VALID,1.17461,
2011-12-16, 00:14:04,VALID,1000.94,VALID,0,VALID,82.9336,VALID,0,VALID,26.4881,VALID,355,VALID,1.22227,
2011-12-16, 00:15:04,VALID,1000.92,VALID,0,VALID,82.4682,VALID,0.0815089,VALID,26.5036,VALID,350,VALID,1.08594,
2011-12-16, 00:16:04,VALID,1000.94,VALID,0,VALID,82.3385,VALID,0.0815089,VALID,26.5426,VALID,353,VALID,0.817969,
2011-12-16, 00:17:04,VALID,1000.94,VALID,0,VALID,81.8579,VALID,0.0815089,VALID,26.5835,VALID,328,VALID,0.601953,
2011-12-16, 00:18:04,VALID,1000.92,VALID,0,VALID,81.8197,VALID,0.0815089,VALID,26.603,VALID,345,VALID,1.33945,
2011-12-16, 00:19:04,VALID,1000.92,VALID,0,VALID,81.8884,VALID,0.0815089,VALID,26.5815,VALID,349,VALID,1.03242,
2011-12-16, 00:20:04,VALID,1000.88,VALID,0,VALID,81.5222,VALID,0.0815089,VALID,26.5835,VALID,350,VALID,1.3082,
2011-12-16, 00:21:04,VALID,1000.84,VALID,0,VALID,81.3391,VALID,0.0815089,VALID,26.5641,VALID,353,VALID,1.41875,
2011-12-16, 00:22:04,VALID,1000.83,VALID,0,VALID,81.3925,VALID,0.0815089,VALID,26.5835,VALID,339,VALID,0.741797,
2011-12-16, 00:23:04,VALID,1000.79,VALID,0,VALID,81.4078,VALID,0,VALID,26.5815,VALID,340,VALID,0.726953,
2011-12-16, 00:24:04,VALID,1000.74,VALID,0,VALID,81.0187,VALID,0.0815089,VALID,26.603,VALID,340,VALID,1.3832,
2011-12-16, 00:25:04,VALID,1000.72,VALID,0,VALID,81.2399,VALID,0.0815089,VALID,26.603,VALID,336,VALID,0.466016,
2011-12-16, 00:26:04,VALID,1000.72,VALID,0,VALID,81.2705,VALID,0.0815089,VALID,26.603,VALID,335,VALID,0.823047,
2011-12-16, 00:27:04,VALID,1000.65,VALID,0,VALID,81.5909,VALID,0.0815089,VALID,26.5641,VALID,3,VALID,0.705859,
2011-12-16, 00:28:04,VALID,1000.63,VALID,0,VALID,81.8884,VALID,0.0815089,VALID,26.5251,VALID,353,VALID,0.901563,
2011-12-16, 00:29:04,VALID,1000.57,VALID,0,VALID,81.9342,VALID,0,VALID,26.5076,VALID,350,VALID,1.10703,
2011-12-16, 00:30:04,VALID,1000.57,VALID,0,VALID,81.6138,VALID,0,VALID,26.4082,VALID,350,VALID,1.43398,
2011-12-16, 00:31:04,VALID,1000.52,VALID,0,VALID,81.5756,VALID,0,VALID,26.4472,VALID,349,VALID,1.06055,
2011-12-16, 00:32:04,VALID,1000.48,VALID,0,VALID,81.4917,VALID,0,VALID,26.4687,VALID,350,VALID,1.43789,
2011-12-16, 00:33:04,VALID,1000.45,VALID,0,VALID,81.7816,VALID,0,VALID,26.4472,VALID,351,VALID,1.04727,
2011-12-16, 00:34:04,VALID,1000.4,VALID,0,VALID,81.6367,VALID,0,VALID,26.4102,VALID,345,VALID,1.20625,
2011-12-16, 00:35:04,VALID,1000.36,VALID,0,VALID,81.8655,VALID,0,VALID,26.4102,VALID,346,VALID,0.946484,
2011-12-16, 00:36:04,VALID,1000.34,VALID,0,VALID,82.2088,VALID,0,VALID,26.3907,VALID,352,VALID,0.787109,
2011-12-16, 00:37:04,VALID,1000.26,VALID,0,VALID,82.1478,VALID,0,VALID,26.3713,VALID,352,VALID,1.10391,
2011-12-16, 00:38:04,VALID,1000.22,VALID,0,VALID,82.3309,VALID,0,VALID,26.3128,VALID,355,VALID,0.755078,
2011-12-16, 00:39:04,VALID,1000.2,VALID,0,VALID,82.4453,VALID,0,VALID,26.2739,VALID,353,VALID,0.99375,
2011-12-16, 00:40:04,VALID,1000.22,VALID,0,VALID,82.2241,VALID,0,VALID,26.2544,VALID,348,VALID,1.03906,
2011-12-16, 00:41:04,VALID,1000.18,VALID,0,VALID,82.1173,VALID,0,VALID,26.2544,VALID,345,VALID,1.05273,
2011-12-16, 00:42:04,VALID,1000.14,VALID,0,VALID,82.1859,VALID,0,VALID,26.2739,VALID,350,VALID,0.726953,
2011-12-16, 00:43:04,VALID,1000.14,VALID,0,VALID,82.4453,VALID,0,VALID,26.2329,VALID,355,VALID,0.6875,
2011-12-16, 00:44:04,VALID,1000.13,VALID,0,VALID,82.1402,VALID,0,VALID,26.2524,VALID,353,VALID,1.06719,
2011-12-16, 00:45:04,VALID,1000.14,VALID,0,VALID,82.1707,VALID,0,VALID,26.2154,VALID,345,VALID,0.656641,
2011-12-16, 00:46:04,VALID,1000.17,VALID,0,VALID,82.3004,VALID,0,VALID,26.2154,VALID,335,VALID,0.863672,
2011-12-16, 00:47:04,VALID,1000.14,VALID,0,VALID,82.1707,VALID,0,VALID,26.194,VALID,1,VALID,1.0625,
2011-12-16, 00:48:04,VALID,1000.15,VALID,0,VALID,82.247,VALID,0,VALID,26.2349,VALID,348,VALID,0.65625,
2011-12-16, 00:49:04,VALID,1000.11,VALID,0,VALID,82.102,VALID,0,VALID,26.2349,VALID,344,VALID,0.883203,
2011-12-16, 00:50:04,VALID,1000.1,VALID,0,VALID,82.0257,VALID,0,VALID,26.2154,VALID,345,VALID,0.728516,
2011-12-16, 00:51:04,VALID,1000.07,VALID,0,VALID,82.102,VALID,0,VALID,26.2154,VALID,347,VALID,0.975391,
2011-12-16, 00:52:04,VALID,1000.09,VALID,0,VALID,81.9799,VALID,0.0815089,VALID,26.2154,VALID,347,VALID,1.24102,
2011-12-16, 00:53:04,VALID,1000.1,VALID,0,VALID,81.9265,VALID,0,VALID,26.2154,VALID,354,VALID,0.914844,
2011-12-16, 00:54:04,VALID,1000.1,VALID,0,VALID,81.4688,VALID,0,VALID,26.2544,VALID,352,VALID,0.969531,
2011-12-16, 00:55:04,VALID,1000.12,VALID,0,VALID,81.0111,VALID,0,VALID,26.2933,VALID,6,VALID,1.11953,
2011-12-16, 00:56:04,VALID,1000.14,VALID,0,VALID,80.7288,VALID,0,VALID,26.3323,VALID,346,VALID,1.24141,
2011-12-16, 00:57:04,VALID,1000.22,VALID,0,VALID,80.5915,VALID,0,VALID,26.4122,VALID,349,VALID,1.18828,
2011-12-16, 00:58:04,VALID,1000.19,VALID,0,VALID,80.3245,VALID,0,VALID,26.4297,VALID,355,VALID,0.80625,
2011-12-16, 00:59:04,VALID,1000.19,VALID,0,VALID,79.7981,VALID,0,VALID,26.4687,VALID,2,VALID,1.31836,
2011-12-16, 01:00:04,VALID,1000.23,VALID,0,VALID,79.821,VALID,0,VALID,26.5271,VALID,355,VALID,1.15625,
2011-12-16, 01:01:04,VALID,1000.27,VALID,0,VALID,79.7599,VALID,0,VALID,26.5056,VALID,1,VALID,1.07031,
2011-12-16, 01:02:04,VALID,1000.25,VALID,0,VALID,79.8973,VALID,0,VALID,26.5486,VALID,10,VALID,0.469141,
2011-12-16, 01:03:04,VALID,1000.23,VALID,0,VALID,79.8362,VALID,0,VALID,26.5271,VALID,352,VALID,0.850391,
2011-12-16, 01:04:04,VALID,1000.2,VALID,0,VALID,79.7676,VALID,0,VALID,26.5076,VALID,345,VALID,1.40313,
2011-12-16, 01:05:04,VALID,1000.2,VALID,0,VALID,79.8439,VALID,0,VALID,26.5271,VALID,358,VALID,0.879297,
2011-12-16, 01:06:04,VALID,1000.15,VALID,0,VALID,80.149,VALID,0,VALID,26.4667,VALID,357,VALID,1.01172,
2011-12-16, 01:07:04,VALID,1000.14,VALID,0,VALID,79.9278,VALID,0,VALID,26.4687,VALID,358,VALID,1.08633,
2011-12-16, 01:08:04,VALID,1000.11,VALID,0,VALID,79.8286,VALID,0,VALID,26.4687,VALID,351,VALID,0.939453,
2011-12-16, 01:09:04,VALID,1000.11,VALID,0,VALID,79.2717,VALID,0,VALID,26.4687,VALID,343,VALID,1.47578,
2011-12-16, 01:10:04,VALID,1000.1,VALID,0,VALID,79.7142,VALID,0,VALID,26.4667,VALID,354,VALID,1.00469,
2011-12-16, 01:11:04,VALID,1000.1,VALID,0,VALID,79.3938,VALID,0,VALID,26.4881,VALID,348,VALID,1.12852,
2011-12-16, 01:12:04,VALID,1000.1,VALID,0,VALID,79.409,VALID,0,VALID,26.5076,VALID,356,VALID,1.28711,
2011-12-16, 01:13:04,VALID,1000.09,VALID,0,VALID,79.7599,VALID,0,VALID,26.5076,VALID,354,VALID,0.870703,
2011-12-16, 01:14:04,VALID,1000.08,VALID,0,VALID,79.6684,VALID,0,VALID,26.4881,VALID,342,VALID,1.04453,
2011-12-16, 01:15:04,VALID,1000.03,VALID,0,VALID,79.8515,VALID,0,VALID,26.4687,VALID,2,VALID,1.04844,
2011-12-16, 01:16:04,VALID,1000.05,VALID,0,VALID,79.2336,VALID,0,VALID,26.4881,VALID,344,VALID,1.01602,
2011-12-16, 01:17:04,VALID,1000.01,VALID,0,VALID,79.203,VALID,0,VALID,26.5056,VALID,348,VALID,1.05898,
2011-12-16, 01:18:04,VALID,999.982,VALID,0,VALID,78.9971,VALID,0,VALID,26.5661,VALID,348,VALID,1.05273,
2011-12-16, 01:19:04,VALID,999.939,VALID,0,VALID,78.9742,VALID,0,VALID,26.5661,VALID,344,VALID,1.10234,
2011-12-16, 01:20:04,VALID,999.927,VALID,0,VALID,79.0657,VALID,0,VALID,26.5446,VALID,346,VALID,0.732813,
2011-12-16, 01:21:04,VALID,999.908,VALID,0,VALID,79.142,VALID,0,VALID,26.5251,VALID,348,VALID,1.17227,
2011-12-16, 01:22:04,VALID,999.895,VALID,0,VALID,78.7606,VALID,0,VALID,26.5466,VALID,351,VALID,1.38203,
2011-12-16, 01:23:04,VALID,999.884,VALID,0,VALID,78.2876,VALID,0,VALID,26.605,VALID,343,VALID,1.15977,
2011-12-16, 01:24:04,VALID,999.911,VALID,0,VALID,78.3867,VALID,0,VALID,26.603,VALID,7,VALID,1.10664,
2011-12-16, 01:25:04,VALID,999.873,VALID,0,VALID,78.6232,VALID,0,VALID,26.644,VALID,352,VALID,0.691016,
2011-12-16, 01:26:04,VALID,999.836,VALID,0,VALID,78.3333,VALID,0,VALID,26.6245,VALID,356,VALID,1.28398,
2011-12-16, 01:27:04,VALID,999.834,VALID,0,VALID,78.2647,VALID,0,VALID,26.6245,VALID,348,VALID,1.60156,
2011-12-16, 01:28:04,VALID,999.83,VALID,0,VALID,78.2723,VALID,0,VALID,26.642,VALID,353,VALID,0.959375,
2011-12-16, 01:29:04,VALID,999.856,VALID,0,VALID,78.5241,VALID,0,VALID,26.6245,VALID,349,VALID,1.02148,
2011-12-16, 01:30:04,VALID,999.847,VALID,0,VALID,78.1731,VALID,0,VALID,26.683,VALID,352,VALID,1.62891,
2011-12-16, 01:31:04,VALID,999.913,VALID,0,VALID,77.7917,VALID,0,VALID,26.7219,VALID,354,VALID,1.78281,
2011-12-16, 01:32:04,VALID,999.927,VALID,0,VALID,77.5323,VALID,0,VALID,26.7609,VALID,352,VALID,0.940234,
2011-12-16, 01:33:04,VALID,999.956,VALID,0,VALID,77.8222,VALID,0,VALID,26.7804,VALID,351,VALID,0.679297,
2011-12-16, 01:34:04,VALID,1000.04,VALID,0,VALID,77.7688,VALID,0,VALID,26.7824,VALID,355,VALID,1.37188,
2011-12-16, 01:35:04,VALID,1000.12,VALID,0,VALID,77.8146,VALID,0,VALID,26.7609,VALID,349,VALID,1.46563,
2011-12-16, 01:36:04,VALID,1000.18,VALID,0,VALID,78.135,VALID,0,VALID,26.7414,VALID,359,VALID,0.916016,
2011-12-16, 01:37:04,VALID,1000.18,VALID,0,VALID,78.2876,VALID,0,VALID,26.7219,VALID,2,VALID,0.875,
2011-12-16, 01:38:04,VALID,1000.23,VALID,0,VALID,78.2799,VALID,0,VALID,26.683,VALID,358,VALID,1.68984,
2011-12-16, 01:39:04,VALID,1000.22,VALID,0,VALID,78.5088,VALID,0,VALID,26.683,VALID,350,VALID,0.717188,
2011-12-16, 01:40:04,VALID,1000.27,VALID,0,VALID,78.4707,VALID,0,VALID,26.642,VALID,353,VALID,0.822266,
2011-12-16, 01:41:04,VALID,1000.3,VALID,0,VALID,78.669,VALID,0,VALID,26.6225,VALID,342,VALID,0.688672,
2011-12-16, 01:42:04,VALID,1000.27,VALID,0,VALID,78.8216,VALID,0,VALID,26.6245,VALID,337,VALID,0.829297,
2011-12-16, 01:43:04,VALID,1000.31,VALID,0,VALID,78.7606,VALID,0,VALID,26.605,VALID,347,VALID,0.6,
2011-12-16, 01:44:04,VALID,1000.31,VALID,0,VALID,78.8445,VALID,0,VALID,26.5466,VALID,347,VALID,0.567969,
2011-12-16, 01:45:04,VALID,1000.32,VALID,0,VALID,78.4401,VALID,0,VALID,26.605,VALID,342,VALID,1.19297,
2011-12-16, 01:46:04,VALID,1000.33,VALID,0,VALID,78.814,VALID,0,VALID,26.644,VALID,343,VALID,0.526172,
2011-12-16, 01:47:04,VALID,1000.3,VALID,0,VALID,78.4707,VALID,0,VALID,26.607,VALID,346,VALID,1.8375,
2011-12-16, 01:48:04,VALID,1000.27,VALID,0,VALID,78.8063,VALID,0,VALID,26.6245,VALID,344,VALID,0.979688,
2011-12-16, 01:49:04,VALID,1000.25,VALID,0,VALID,78.8979,VALID,0,VALID,26.5855,VALID,342,VALID,0.9875,
2011-12-16, 01:50:04,VALID,1000.25,VALID,0,VALID,78.7224,VALID,0,VALID,26.5251,VALID,346,VALID,1.46875,
2011-12-16, 01:51:04,VALID,1000.26,VALID,0,VALID,78.875,VALID,0,VALID,26.5466,VALID,357,VALID,1.36523,
2011-12-16, 01:52:04,VALID,1000.2,VALID,0,VALID,78.9971,VALID,0,VALID,26.5661,VALID,345,VALID,1.16133,
2011-12-16, 01:53:04,VALID,1000.19,VALID,0,VALID,79.1267,VALID,0,VALID,26.5466,VALID,350,VALID,1.01328,
2011-12-16, 01:54:04,VALID,1000.18,VALID,0,VALID,79.1725,VALID,0,VALID,26.5486,VALID,349,VALID,1.28086,
2011-12-16, 01:55:04,VALID,1000.15,VALID,0,VALID,79.1115,VALID,0,VALID,26.5076,VALID,352,VALID,1.27148,
2011-12-16, 01:56:04,VALID,1000.12,VALID,0,VALID,78.9055,VALID,0,VALID,26.5271,VALID,343,VALID,1.05469,
2011-12-16, 01:57:04,VALID,1000.13,VALID,0,VALID,78.7529,VALID,0,VALID,26.5271,VALID,352,VALID,1.33125,
2011-12-16, 01:58:04,VALID,1000.11,VALID,0,VALID,78.7606,VALID,0,VALID,26.5661,VALID,345,VALID,0.815625,
2011-12-16, 01:59:04,VALID,1000.09,VALID,0,VALID,78.8826,VALID,0,VALID,26.5641,VALID,352,VALID,1.6043,
2011-12-16, 02:00:04,VALID,1000.08,VALID,0,VALID,78.73,VALID,0,VALID,26.5855,VALID,346,VALID,1.16133,
2011-12-16, 02:01:04,VALID,1000.06,VALID,0,VALID,78.9742,VALID,0,VALID,26.5661,VALID,348,VALID,1.00469,
2011-12-16, 02:02:04,VALID,1000.08,VALID,0,VALID,78.9589,VALID,0,VALID,26.5466,VALID,349,VALID,1.04492,
2011-12-16, 02:03:04,VALID,1000.12,VALID,0,VALID,79.3632,VALID,0,VALID,26.5056,VALID,352,VALID,0.898047,
2011-12-16, 02:04:04,VALID,1000.14,VALID,0,VALID,79.0962,VALID,0,VALID,26.5271,VALID,350,VALID,1.01367,
2011-12-16, 02:05:04,VALID,1000.15,VALID,0,VALID,79.3175,VALID,0,VALID,26.4861,VALID,340,VALID,0.673047,
2011-12-16, 02:06:04,VALID,1000.19,VALID,0,VALID,79.1496,VALID,0,VALID,26.4667,VALID,348,VALID,0.661328,
2011-12-16, 02:07:04,VALID,1000.2,VALID,0,VALID,79.2336,VALID,0,VALID,26.4881,VALID,340,VALID,0.641797,
2011-12-16, 02:08:04,VALID,1000.2,VALID,0,VALID,78.8216,VALID,0,VALID,26.4881,VALID,349,VALID,1.08594,
2011-12-16, 02:09:04,VALID,1000.17,VALID,0,VALID,78.8521,VALID,0,VALID,26.5271,VALID,344,VALID,0.770312,
2011-12-16, 02:10:04,VALID,1000.16,VALID,0,VALID,78.608,VALID,0,VALID,26.5466,VALID,350,VALID,0.920313,
2011-12-16, 02:11:04,VALID,1000.11,VALID,0,VALID,78.8216,VALID,0,VALID,26.5661,VALID,344,VALID,1.02422,
2011-12-16, 02:12:04,VALID,1000.09,VALID,0,VALID,78.4173,VALID,0,VALID,26.5446,VALID,344,VALID,1.78555,
2011-12-16, 02:13:04,VALID,1000.12,VALID,0,VALID,78.4096,VALID,0,VALID,26.5855,VALID,344,VALID,0.803516,
2011-12-16, 02:14:04,VALID,1000.08,VALID,0,VALID,78.0206,VALID,0,VALID,26.6614,VALID,349,VALID,1.47148,
2011-12-16, 02:15:04,VALID,1000.05,VALID,0,VALID,78.2113,VALID,0,VALID,26.6225,VALID,345,VALID,0.743359,
2011-12-16, 02:16:04,VALID,1000.07,VALID,0,VALID,78.1426,VALID,0,VALID,26.642,VALID,341,VALID,1.06523,
2011-12-16, 02:17:04,VALID,1000.08,VALID,0,VALID,78.1045,VALID,0,VALID,26.683,VALID,352,VALID,1.03242,
2011-12-16, 02:18:04,VALID,1000.09,VALID,0,VALID,78.0968,VALID,0,VALID,26.642,VALID,341,VALID,1.10078,
2011-12-16, 02:19:04,VALID,1000.07,VALID,0,VALID,78.0968,VALID,0,VALID,26.6635,VALID,2,VALID,1.03086,
2011-12-16, 02:20:04,VALID,1000.05,VALID,0,VALID,78.2494,VALID,0,VALID,26.644,VALID,348,VALID,0.903125,
2011-12-16, 02:21:04,VALID,1000.03,VALID,0,VALID,78.3867,VALID,0,VALID,26.6245,VALID,340,VALID,0.842578,
2011-12-16, 02:22:04,VALID,1000.02,VALID,0,VALID,78.3105,VALID,0,VALID,26.603,VALID,351,VALID,1.76055,
2011-12-16, 02:23:04,VALID,1000.02,VALID,0,VALID,78.5241,VALID,0,VALID,26.5641,VALID,359,VALID,1.82773,
2011-12-16, 02:24:04,VALID,1000.03,VALID,0,VALID,78.8292,VALID,0,VALID,26.5641,VALID,354,VALID,0.869922,
2011-12-16, 02:25:04,VALID,1000.03,VALID,0,VALID,78.9055,VALID,0,VALID,26.5271,VALID,349,VALID,1.14102,
2011-12-16, 02:26:04,VALID,1000.01,VALID,0,VALID,78.8826,VALID,0,VALID,26.4861,VALID,348,VALID,1.17656,
2011-12-16, 02:27:04,VALID,1000.02,VALID,0,VALID,79.0505,VALID,0,VALID,26.5271,VALID,330,VALID,0.727344,
2011-12-16, 02:28:04,VALID,999.979,VALID,0,VALID,79.0276,VALID,0,VALID,26.5076,VALID,345,VALID,0.984375,
2011-12-16, 02:29:04,VALID,999.958,VALID,0,VALID,79.2259,VALID,0,VALID,26.5271,VALID,356,VALID,0.711328,
2011-12-16, 02:30:04,VALID,999.917,VALID,0,VALID,79.5463,VALID,0,VALID,26.4472,VALID,10,VALID,1.29062,
2011-12-16, 02:31:04,VALID,999.922,VALID,0,VALID,79.6989,VALID,0,VALID,26.4277,VALID,350,VALID,0.977734,
2011-12-16, 02:32:04,VALID,999.952,VALID,0,VALID,79.6226,VALID,0,VALID,26.4297,VALID,333,VALID,1.01367,
2011-12-16, 02:33:04,VALID,999.946,VALID,0,VALID,79.554,VALID,0,VALID,26.4277,VALID,356,VALID,0.861719,
2011-12-16, 02:34:04,VALID,999.927,VALID,0,VALID,79.5235,VALID,0,VALID,26.4687,VALID,340,VALID,0.831641,
2011-12-16, 02:35:04,VALID,999.919,VALID,0,VALID,79.6913,VALID,0,VALID,26.4881,VALID,353,VALID,0.91875,
2011-12-16, 02:36:04,VALID,999.891,VALID,0,VALID,79.6074,VALID,0,VALID,26.4667,VALID,347,VALID,1.57539,
2011-12-16, 02:37:04,VALID,999.877,VALID,0,VALID,79.5006,VALID,0,VALID,26.5056,VALID,346,VALID,1.30938,
2011-12-16, 02:38:04,VALID,999.849,VALID,0,VALID,79.3556,VALID,0,VALID,26.5056,VALID,351,VALID,1.51406,
2011-12-16, 02:39:04,VALID,999.832,VALID,0,VALID,79.6684,VALID,0,VALID,26.5271,VALID,347,VALID,1.11484,
2011-12-16, 02:40:04,VALID,999.8,VALID,0,VALID,79.3556,VALID,0,VALID,26.5251,VALID,354,VALID,1.90391,
2011-12-16, 02:41:04,VALID,999.833,VALID,0,VALID,79.2412,VALID,0,VALID,26.5271,VALID,348,VALID,1.42383,
2011-12-16, 02:42:04,VALID,999.794,VALID,0,VALID,79.1802,VALID,0,VALID,26.5466,VALID,348,VALID,1.85742,
2011-12-16, 02:43:04,VALID,999.775,VALID,0,VALID,79.1267,VALID,0,VALID,26.5661,VALID,338,VALID,1.74297,
2011-12-16, 02:44:04,VALID,999.79,VALID,0,VALID,79.1039,VALID,0,VALID,26.5855,VALID,348,VALID,1.05039,
2011-12-16, 02:45:04,VALID,999.759,VALID,0,VALID,79.1878,VALID,0,VALID,26.5641,VALID,348,VALID,1.25,
2011-12-16, 02:46:04,VALID,999.735,VALID,0,VALID,79.0352,VALID,0,VALID,26.5855,VALID,357,VALID,1.15977,
2011-12-16, 02:47:04,VALID,999.737,VALID,0,VALID,78.9971,VALID,0,VALID,26.5446,VALID,346,VALID,1.41758,
2011-12-16, 02:48:04,VALID,999.706,VALID,0,VALID,79.0352,VALID,0,VALID,26.5641,VALID,351,VALID,1.9793,
2011-12-16, 02:49:04,VALID,999.69,VALID,0,VALID,79.142,VALID,0,VALID,26.5641,VALID,349,VALID,0.969531,
2011-12-16, 02:50:04,VALID,999.666,VALID,0,VALID,79.2183,VALID,0,VALID,26.5661,VALID,338,VALID,0.75,
2011-12-16, 02:51:04,VALID,999.619,VALID,0,VALID,79.4548,VALID,0,VALID,26.5446,VALID,353,VALID,1.24531,
2011-12-16, 02:52:04,VALID,999.62,VALID,0,VALID,79.5311,VALID,0,VALID,26.5466,VALID,355,VALID,1.30898,
2011-12-16, 02:53:04,VALID,999.604,VALID,0,VALID,79.7218,VALID,0,VALID,26.5271,VALID,344,VALID,1.2082,
2011-12-16, 02:54:04,VALID,999.609,VALID,0,VALID,79.6226,VALID,0,VALID,26.5466,VALID,352,VALID,1.54961,
2011-12-16, 02:55:04,VALID,999.628,VALID,0,VALID,79.6608,VALID,0,VALID,26.5271,VALID,343,VALID,0.930859,
2011-12-16, 02:56:04,VALID,999.648,VALID,0,VALID,79.7371,VALID,0,VALID,26.5251,VALID,323,VALID,2.04688,
2011-12-16, 02:57:04,VALID,999.636,VALID,0,VALID,79.554,VALID,0,VALID,26.5855,VALID,351,VALID,1.40195,
2011-12-16, 02:58:04,VALID,999.633,VALID,0,VALID,79.6379,VALID,0,VALID,26.562,VALID,342,VALID,0.460156,
2011-12-16, 02:59:04,VALID,999.637,VALID,0,VALID,79.676,VALID,0,VALID,26.605,VALID,343,VALID,1.32734,
2011-12-16, 03:00:04,VALID,999.61,VALID,0,VALID,79.3785,VALID,0,VALID,26.605,VALID,356,VALID,1.5207,
2011-12-16, 03:01:04,VALID,999.594,VALID,0,VALID,79.3251,VALID,0,VALID,26.6225,VALID,3,VALID,1.08828,
2011-12-16, 03:02:04,VALID,999.519,VALID,0,VALID,79.2107,VALID,0,VALID,26.6225,VALID,5,VALID,1.73125,
2011-12-16, 03:03:04,VALID,999.502,VALID,0,VALID,79.0047,VALID,0,VALID,26.6635,VALID,347,VALID,1.4332,
2011-12-16, 03:04:04,VALID,999.509,VALID,0,VALID,79.3404,VALID,0,VALID,26.6614,VALID,326,VALID,0.838672,
2011-12-16, 03:05:04,VALID,999.517,VALID,0,VALID,79.287,VALID,0,VALID,26.642,VALID,340,VALID,0.309766,
2011-12-16, 03:06:04,VALID,999.564,VALID,0,VALID,79.2564,VALID,0.0815089,VALID,26.6225,VALID,342,VALID,0.619531,
2011-12-16, 03:07:04,VALID,999.553,VALID,0,VALID,79.287,VALID,0,VALID,26.603,VALID,352,VALID,0.886328,
2011-12-16, 03:08:04,VALID,999.593,VALID,0,VALID,79.2564,VALID,0,VALID,26.605,VALID,337,VALID,1.09883,
2011-12-16, 03:09:04,VALID,999.601,VALID,0,VALID,79.4014,VALID,0,VALID,26.6245,VALID,354,VALID,1.06406,
2011-12-16, 03:10:04,VALID,999.608,VALID,0,VALID,79.554,VALID,0,VALID,26.5835,VALID,351,VALID,0.554688,
2011-12-16, 03:11:04,VALID,999.624,VALID,0,VALID,79.8057,VALID,0,VALID,26.5855,VALID,356,VALID,1.48398,
2011-12-16, 03:12:04,VALID,999.633,VALID,0,VALID,79.7142,VALID,0,VALID,26.5641,VALID,335,VALID,0.630469,
2011-12-16, 03:13:04,VALID,999.665,VALID,0,VALID,79.7599,VALID,0,VALID,26.5446,VALID,324,VALID,0.391406,
2011-12-16, 03:14:05,VALID,999.628,VALID,0,VALID,79.943,VALID,0,VALID,26.5855,VALID,278,VALID,0.220703,
2011-12-16, 03:15:05,VALID,999.683,VALID,0,VALID,79.9049,VALID,0,VALID,26.4861,VALID,328,VALID,0.935938,
2011-12-16, 03:16:05,VALID,999.644,VALID,0,VALID,80.1795,VALID,0,VALID,26.4472,VALID,346,VALID,0.792969,
2011-12-16, 03:17:05,VALID,999.657,VALID,0,VALID,80.0956,VALID,0,VALID,26.4472,VALID,356,VALID,1.41094,
2011-12-16, 03:18:05,VALID,999.683,VALID,0,VALID,80.4008,VALID,0.0815089,VALID,26.4062,VALID,359,VALID,1.21211,
2011-12-16, 03:19:05,VALID,999.679,VALID,0,VALID,80.5457,VALID,0,VALID,26.4297,VALID,358,VALID,1.21367,
2011-12-16, 03:20:05,VALID,999.714,VALID,0,VALID,80.8432,VALID,0,VALID,26.3693,VALID,359,VALID,1.11914,
2011-12-16, 03:21:05,VALID,999.68,VALID,0,VALID,80.5991,VALID,0,VALID,26.3498,VALID,349,VALID,1.3707,
2011-12-16, 03:22:05,VALID,999.722,VALID,0,VALID,80.767,VALID,0,VALID,26.3518,VALID,4,VALID,0.901563,
2011-12-16, 03:23:05,VALID,999.741,VALID,0,VALID,80.4771,VALID,0,VALID,26.3323,VALID,3,VALID,1.03242,
2011-12-16, 03:24:05,VALID,999.747,VALID,0,VALID,80.6602,VALID,0,VALID,26.3518,VALID,318,VALID,0.510547,
2011-12-16, 03:25:05,VALID,999.757,VALID,0,VALID,80.8127,VALID,0.0815089,VALID,26.3303,VALID,358,VALID,1.36797,
2011-12-16, 03:26:05,VALID,999.752,VALID,0,VALID,80.2024,VALID,0.0815089,VALID,26.3693,VALID,351,VALID,1.54141,
2011-12-16, 03:27:05,VALID,999.738,VALID,0,VALID,79.7752,VALID,0,VALID,26.4277,VALID,346,VALID,1.22578,
2011-12-16, 03:28:05,VALID,999.711,VALID,0,VALID,79.4777,VALID,0,VALID,26.4861,VALID,346,VALID,1.3875,
2011-12-16, 03:29:05,VALID,999.716,VALID,0,VALID,78.7148,VALID,0,VALID,26.4881,VALID,356,VALID,1.88047,
2011-12-16, 03:30:05,VALID,999.731,VALID,0,VALID,78.4859,VALID,0,VALID,26.6265,VALID,355,VALID,1.625,
2011-12-16, 03:31:05,VALID,999.692,VALID,0,VALID,77.9138,VALID,0,VALID,26.644,VALID,342,VALID,1.30273,
2011-12-16, 03:32:05,VALID,999.701,VALID,0,VALID,78.0816,VALID,0,VALID,26.683,VALID,352,VALID,1.14102,
2011-12-16, 03:33:05,VALID,999.639,VALID,0,VALID,77.7154,VALID,0,VALID,26.7045,VALID,349,VALID,0.864062,
2011-12-16, 03:34:05,VALID,999.656,VALID,0,VALID,77.929,VALID,0,VALID,26.6614,VALID,351,VALID,0.979688,
2011-12-16, 03:35:05,VALID,999.655,VALID,0,VALID,77.7459,VALID,0,VALID,26.6635,VALID,343,VALID,1.275,
2011-12-16, 03:36:05,VALID,999.69,VALID,0,VALID,78.0892,VALID,0,VALID,26.6635,VALID,343,VALID,0.524219,
2011-12-16, 03:37:05,VALID,999.68,VALID,0,VALID,77.9824,VALID,0,VALID,26.685,VALID,343,VALID,1.09336,
2011-12-16, 03:38:05,VALID,999.697,VALID,0,VALID,78.1045,VALID,0,VALID,26.644,VALID,346,VALID,1.16016,
2011-12-16, 03:39:05,VALID,999.719,VALID,0,VALID,78.2876,VALID,0,VALID,26.644,VALID,350,VALID,0.964453,
2011-12-16, 03:40:05,VALID,999.725,VALID,0,VALID,78.3562,VALID,0,VALID,26.6245,VALID,349,VALID,0.645312,
2011-12-16, 03:41:05,VALID,999.75,VALID,0,VALID,78.196,VALID,0,VALID,26.6245,VALID,358,VALID,0.982031,
2011-12-16, 03:42:05,VALID,999.769,VALID,0,VALID,78.6538,VALID,0,VALID,26.6245,VALID,339,VALID,0.752344,
2011-12-16, 03:43:05,VALID,999.81,VALID,0,VALID,78.3639,VALID,0,VALID,26.605,VALID,348,VALID,1.57578,
2011-12-16, 03:44:05,VALID,999.868,VALID,0,VALID,78.6004,VALID,0,VALID,26.6245,VALID,346,VALID,1.03125,
2011-12-16, 03:45:05,VALID,999.874,VALID,0,VALID,78.9665,VALID,0,VALID,26.5661,VALID,350,VALID,0.572656,